{"data":{"norad_id":65737,"intl_designator":"2025-216D","name":"STARLINK-35121","alt_names":[],"object_type":"PAYLOAD","status":"ACTIVE","operator":null,"country":"US","launch_date":"2025-09-25","launch_site_code":"AFETR","launch_vehicle":null,"mission":null,"orbit_class":"UNKNOWN","rcs_meters":null,"size_class":null,"mass_kg":null,"dimensions":null,"purposes":["comms"],"wikipedia_slug":null,"has_3d_model":false,"image_url":null,"decayed_at":null,"tle_current":{"epoch":"2026-05-24T19:15:10.026432Z","epoch_age_seconds":98935,"freshness":"FRESH","line1":"1 65737U 25216D   26144.80219938  .00018757  00000+0  64367-3 0  9997","line2":"2 65737  53.1620 339.5765 0001696  88.3302 271.7893 15.30207552 38199","mean_motion":15.30207552,"eccentricity":0.0001696,"inclination_deg":53.162,"raan_deg":339.5765,"arg_perigee_deg":88.3302,"mean_anomaly_deg":271.7893,"bstar":0.00064367,"rev_number":3819,"period_min":94.104881270381,"perigee_km":474.03019591463,"apogee_km":476.35484528801,"semimajor_km":6853.3295206013,"source":"CELESTRAK","updated_at":"2026-05-25T13:38:20.928194Z"}}}